[[{"header":{"parameterUnit":"m.s-1","parameterCategory":1,"la1":30.2991,"la2":30.254,"lo1":-89.0895,"lo2":-89.0444,"dy":0.0017,"dx":0.0017,"nx":28,"ny":28,"refTime":"2024-07-25T21:00:00:Z","depth":0,"parameterNumber":2,"parameterNumberName":"U-component_of_WINDS"},"data":[0,0,0,0,0,0,0,0,0,0,0,0,0,0,0,0,0,0,0,0,0,0,0,0,0,0,0,0,0,0,0,0,0,0,0,0,0,0,0,0,0,0,0,0,0,0,0,0,0,0,0,0,0,0,0,0,0,0,-1.75,-1.7498,0,-1.7372,-1.737,-1.7369,-1.7298,-1.7298,-1.7298,-1.7298,-1.7162,-1.7159,-1.7156,0,0,0,0,0,0,0,0,0,0,0,0,0,-1.7681,-1.7678,-1.75,-1.7498,-1.7497,-1.7372,-1.737,-1.7368,-1.7298,-1.7298,-1.7298,-1.7297,-1.7163,-1.7159,-1.7155,0,0,0,0,0,0,0,0,0,0,0,0,0,-1.7583,-1.7677,-1.75,-1.7447,-1.7441,-1.7372,-1.737,-1.7368,-1.7298,-1.7298,-1.7298,-1.7297,-1.7165,-1.716,-1.7155,-1.7129,0,0,-1.7139,-1.7137,0,0,0,0,0,0,0,0,-1.7588,-1.7576,-1.7456,-1.745,-1.7443,-1.7351,-1.7384,-1.7287,-1.7298,-1.7352,-1.7298,-1.7297,-1.7225,-1.7215,-1.7191,-1.7122,-1.7116,-1.7139,-1.7135,-1.7133,-1.7132,0,0,0,0,0,0,0,-1.7595,-1.7581,-1.7449,-1.7454,-1.7447,-1.7428,-1.7414,-1.7366,-1.7291,-1.7347,-1.7342,-1.7328,-1.7221,-1.7196,-1.7188,-1.7114,-1.7139,-1.7134,-1.7131,-1.7129,-1.702,-1.702,0,0,0,0,0,0,-1.7611,-1.7587,-1.7453,-1.7445,-1.7517,-1.7425,-1.7409,-1.7381,-1.7292,-1.7278,-1.7328,-1.7325,-1.7205,-1.7194,-1.7183,-1.7147,-1.7133,-1.7128,-1.7126,-1.702,-1.702,-1.702,0,0,0,0,0,0,-1.7615,-1.76,-1.7458,-1.7515,-1.7495,-1.7423,-1.7391,-1.7378,-1.7353,-1.7278,-1.7264,-1.7317,-1.7205,-1.719,-1.7143,-1.7141,-1.7126,-1.7121,-1.7019,-1.702,-1.702,-1.7076,0,0,0,0,0,0,-1.7621,-1.7602,-1.7591,-1.7515,-1.7493,-1.7422,-1.7391,-1.7376,-1.7345,-1.734,-1.7263,-1.725,-1.7203,-1.7151,-1.7138,-1.7134,-1.7117,-1.7019,-1.702,-1.702,-1.7074,-1.7078,-1.7082,0,0,0,0,0,-1.7628,-1.7611,-1.7591,-1.7575,-1.7478,-1.7422,-1.7409,-1.7357,-1.7345,-1.7334,-1.7286,-1.7252,-1.7144,-1.7147,-1.7132,-1.7126,-1.7019,-1.7019,-1.702,-1.7072,-1.7077,-1.7081,0,0,0,0,0,0,-1.7686,-1.7599,-1.7577,-1.7535,-1.7487,-1.741,-1.7394,-1.7363,-1.7316,-1.7312,-1.7249,-1.7232,-1.7192,-1.7154,-1.7159,-1.7097,-1.7078,-1.7076,-1.7123,-1.7127,-1.7131,-1.7141,-1.7113,0,0,0,0,0,-1.7695,-1.7657,-1.7583,-1.7553,-1.753,-1.7467,-1.744,-1.7405,-1.7351,-1.733,-1.7278,-1.7227,-1.7181,-1.7152,-1.7106,-1.7069,-1.7051,-1.7057,-1.7061,-1.7065,-1.7063,-1.7042,-1.7044,-1.7021,-1.7021,-1.7021,0,0,-1.771,-1.7659,-1.7638,-1.7564,-1.7522,-1.7484,-1.7449,-1.741,-1.7381,-1.7323,-1.7277,-1.7238,-1.7176,-1.7135,-1.7114,-1.7102,-1.7066,-1.7066,-1.7069,-1.7065,-1.7043,-1.7045,-1.7047,-1.7022,-1.7022,-1.7022,0,0,-1.772,-1.7677,-1.7649,-1.7609,-1.7547,-1.7505,-1.7499,-1.7427,-1.74,-1.7353,-1.7309,-1.7274,-1.7196,-1.7155,-1.7124,-1.7123,-1.7091,-1.711,-1.7129,-1.711,-1.7112,-1.7113,-1.7113,-1.7114,-1.7108,-1.7108,-1.7108,0,-1.7747,-1.7689,-1.7637,-1.7601,-1.757,-1.7519,-1.7489,-1.7453,-1.7378,-1.7358,-1.7347,-1.7251,-1.7205,-1.7154,-1.7155,-1.7131,-1.7122,-1.7117,-1.7116,-1.7116,-1.7117,-1.7116,-1.7116,-1.7111,-1.7111,-1.7111,-1.711,0,-1.7726,-1.7687,-1.7671,-1.7604,-1.7571,-1.7538,-1.7481,-1.7454,-1.7423,-1.7383,-1.7337,-1.7281,-1.7224,-1.721,-1.7177,-1.7155,-1.715,-1.7128,-1.7107,-1.7123,-1.7121,-1.712,-1.7115,-1.7114,-1.7113,-1.7113,0,0,-1.7766,-1.7673,-1.7668,-1.7638,-1.7568,-1.7536,-1.7502,-1.7448,-1.7427,-1.7378,-1.7348,-1.7286,-1.7267,-1.7232,-1.7195,-1.7178,-1.7182,-1.7158,-1.7156,-1.7165,-1.7155,-1.7171,-1.7172,-1.7161,-1.7161,-1.716,-1.716,0,-1.7766,-1.7703,-1.7657,-1.7612,-1.7576,-1.7528,-1.7499,-1.7453,-1.7415,-1.7379,-1.7337,-1.7294,-1.7271,-1.725,-1.7231,-1.7185,-1.7179,-1.7185,-1.7132,-1.7131,-1.7148,-1.7171,-1.7187,-1.7189,-1.7159,-1.7159,-1.7159,0,-1.7756,-1.7712,-1.7665,-1.7601,-1.7584,-1.7558,-1.7507,-1.7472,-1.742,-1.7394,-1.7357,-1.732,-1.7282,-1.7267,-1.7214,-1.722,-1.7196,-1.717,-1.7169,-1.7161,-1.7145,-1.7163,-1.7188,-1.7189,-1.7157,-1.7157,-1.7157,0,-1.7791,-1.772,-1.7682,-1.7658,-1.7582,-1.7566,-1.7534,-1.7481,-1.7452,-1.7407,-1.7388,-1.7339,-1.7312,-1.7274,-1.7225,-1.7218,-1.7178,-1.7158,-1.7155,-1.7157,-1.7147,-1.7148,-1.7169,-1.7133,-1.7133,-1.7133,-1.7133,0,-1.7795,-1.7767,-1.7697,-1.7674,-1.7643,-1.759,-1.756,-1.7524,-1.7478,-1.7447,-1.7403,-1.7375,-1.7312,-1.7276,-1.7238,-1.7201,-1.7188,-1.7166,-1.7156,-1.717,-1.7173,-1.7152,-1.7151,-1.7133,-1.7133,-1.7133,-1.7133,0,-1.7827,-1.7779,-1.7735,-1.7669,-1.7652,-1.7632,-1.7575,-1.755,-1.7512,-1.7474,-1.7462,-1.7401,-1.7357,-1.7305,-1.7243,-1.7218,-1.7184,-1.7169,-1.7202,-1.7196,-1.7197,-1.7197,-1.7204,-1.7202,-1.7169,-1.7169,-1.717,0,-1.7832,-1.781,-1.7743,-1.772,-1.769,-1.7653,-1.7625,-1.7574,-1.7546,-1.7486,-1.747,-1.7423,-1.7383,-1.7315,-1.7265,-1.7218,-1.7202,-1.7207,-1.7194,-1.7209,-1.7202,-1.7204,-1.7201,-1.721,-1.7211,-1.7212,-1.7212,0,-1.7847,-1.7825,-1.7787,-1.7741,-1.7709,-1.767,-1.7629,-1.7612,-1.7553,-1.7524,-1.748,-1.7449,-1.7388,-1.7342,-1.729,-1.7256,-1.7224,-1.7217,-1.7214,-1.7227,-1.7247,-1.7237,-1.7212,-1.7217,-1.7216,-1.7216,-1.7215,-1.7215,-1.7865,-1.7845,-1.7795,-1.7754,-1.7719,-1.7683,-1.7658,-1.7618,-1.758,-1.7528,-1.75,-1.7456,-1.7407,-1.7334,-1.7301,-1.7267,-1.7255,-1.7251,-1.7249,-1.7249,-1.7253,-1.7254,-1.7257,-1.7257,-1.7257,-1.7256,-1.7256,0,-1.7878,-1.7845,-1.7808,-1.7754,-1.7722,-1.7698,-1.7652,-1.7627,-1.759,-1.7547,-1.7509,-1.7459,-1.7416,-1.7364,-1.7317,-1.73,-1.7284,-1.7289,-1.7289,-1.7282,-1.7266,-1.7273,-1.7303,-1.7303,-1.7303,-1.7303,-1.7303,-1.7303,-1.788,-1.7845,-1.7818,-1.7765,-1.7731,-1.769,-1.7666,-1.7632,-1.7598,-1.7545,-1.751,-1.7477,-1.7431,-1.7381,-1.734,-1.7326,-1.7311,-1.732,-1.7302,-1.7287,-1.7283,-1.7279,-1.7286,-1.7318,-1.7318,-1.7321,-1.7321,-1.7321]},{"header":{"parameterUnit":"m.s-1","parameterCategory":1,"la1":30.2991,"la2":30.254,"lo1":-89.0895,"lo2":-89.0444,"dy":0.0017,"dx":0.0017,"nx":28,"ny":28,"refTime":"2024-07-25T21:00:00:Z","depth":0,"parameterNumber":3,"parameterNumberName":"V-component_of_WINDS"},"data":[0,0,0,0,0,0,0,0,0,0,0,0,0,0,0,0,0,0,0,0,0,0,0,0,0,0,0,0,0,0,0,0,0,0,0,0,0,0,0,0,0,0,0,0,0,0,0,0,0,0,0,0,0,0,0,0,0,0,1.4107,1.4107,0,1.408,1.408,1.408,1.4076,1.4076,1.4076,1.4076,1.4045,1.4044,1.4043,0,0,0,0,0,0,0,0,0,0,0,0,0,1.4152,1.4151,1.4108,1.4107,1.4107,1.4081,1.408,1.408,1.4076,1.4076,1.4076,1.4076,1.4046,1.4045,1.4043,0,0,0,0,0,0,0,0,0,0,0,0,0,1.4129,1.4151,1.4108,1.4102,1.4101,1.4081,1.408,1.408,1.4076,1.4076,1.4076,1.4077,1.4046,1.4045,1.4043,1.4026,0,0,1.4038,1.4038,0,0,0,0,0,0,0,0,1.4131,1.4128,1.4103,1.4102,1.4101,1.4082,1.4084,1.4062,1.4075,1.4085,1.4076,1.4077,1.4057,1.4055,1.4049,1.4024,1.4023,1.4038,1.4037,1.4036,1.4036,0,0,0,0,0,0,0,1.4132,1.4129,1.4097,1.4102,1.4101,1.4099,1.4096,1.408,1.4069,1.4084,1.4084,1.4081,1.4057,1.405,1.4048,1.4023,1.4038,1.4037,1.4036,1.4035,1.3981,1.3981,0,0,0,0,0,0,1.4135,1.413,1.4098,1.4096,1.4117,1.4098,1.4095,1.4088,1.4069,1.4067,1.4081,1.4081,1.4053,1.405,1.4047,1.4024,1.4037,1.4035,1.4034,1.3982,1.3981,1.3981,0,0,0,0,0,0,1.4136,1.4133,1.4099,1.4113,1.4109,1.4097,1.4089,1.4087,1.408,1.4067,1.4064,1.4076,1.4053,1.4049,1.4031,1.4023,1.4034,1.4033,1.3982,1.3982,1.3981,1.398,0,0,0,0,0,0,1.4138,1.4133,1.4127,1.4113,1.4108,1.4084,1.4088,1.4086,1.4078,1.4078,1.4062,1.406,1.4053,1.4033,1.4029,1.4021,1.4032,1.3983,1.3982,1.3981,1.398,1.3979,1.3978,0,0,0,0,0,1.4139,1.4127,1.4127,1.4123,1.41,1.4084,1.4081,1.4074,1.4078,1.4071,1.4062,1.406,1.4025,1.4032,1.4027,1.4018,1.3983,1.3982,1.3981,1.3981,1.3979,1.3978,0,0,0,0,0,0,1.414,1.4125,1.4125,1.4108,1.4097,1.4083,1.4075,1.4073,1.406,1.4061,1.4052,1.4049,1.4031,1.4023,1.403,1.4,1.4004,1.4002,1.4006,1.4004,1.4003,1.4004,1.403,0,0,0,0,0,1.4138,1.4127,1.4115,1.4101,1.4096,1.4087,1.4079,1.4075,1.4063,1.4058,1.4048,1.4036,1.4022,1.4012,1.3999,1.398,1.3975,1.3971,1.397,1.3969,1.3967,1.3954,1.3952,1.3977,1.3977,1.3977,0,0,1.4135,1.4125,1.4119,1.4101,1.4093,1.408,1.4083,1.407,1.406,1.4056,1.4038,1.403,1.4016,1.3997,1.3988,1.399,1.3959,1.3968,1.3967,1.3965,1.3953,1.3951,1.3949,1.3976,1.3977,1.3977,0,0,1.4121,1.4114,1.4101,1.4092,1.4079,1.4073,1.407,1.4056,1.4051,1.4033,1.403,1.4018,1.3994,1.3984,1.3975,1.3957,1.3954,1.3953,1.3946,1.3934,1.3932,1.393,1.3922,1.3919,1.3951,1.3951,1.3951,0,1.4118,1.41,1.4095,1.4082,1.4073,1.407,1.4057,1.4048,1.4031,1.4025,1.4027,1.3997,1.3987,1.3965,1.3961,1.3954,1.3949,1.3954,1.3933,1.3931,1.3929,1.3921,1.3918,1.3951,1.3951,1.3951,1.3951,0,1.4096,1.4083,1.4074,1.4059,1.405,1.4036,1.4028,1.4019,1.4016,1.4008,1.399,1.3978,1.3961,1.3956,1.3952,1.3932,1.3934,1.3935,1.3939,1.3927,1.3919,1.3916,1.3951,1.3951,1.3951,1.3951,0,0,1.4081,1.4063,1.406,1.4052,1.4037,1.4027,1.4013,1.3998,1.3989,1.3978,1.3964,1.3945,1.3945,1.3936,1.3931,1.392,1.3905,1.3922,1.3922,1.3918,1.388,1.3879,1.3875,1.3904,1.3903,1.3903,1.3881,0,1.4065,1.4041,1.4036,1.4014,1.4002,1.3999,1.3986,1.3975,1.3968,1.3955,1.3947,1.3932,1.3935,1.3929,1.3919,1.3909,1.3897,1.3911,1.3889,1.3889,1.3892,1.3872,1.387,1.3851,1.3878,1.3878,1.3877,0,1.4043,1.4031,1.4009,1.3995,1.3989,1.3978,1.3963,1.3952,1.3939,1.3934,1.3923,1.3919,1.3903,1.3909,1.3885,1.3894,1.3885,1.3879,1.3878,1.3875,1.3881,1.3866,1.3844,1.3841,1.3873,1.3873,1.3874,0,1.4033,1.4011,1.3995,1.3989,1.3973,1.3965,1.3957,1.3945,1.3935,1.3922,1.3915,1.39,1.3891,1.3879,1.387,1.3875,1.3846,1.3852,1.384,1.384,1.3833,1.3833,1.3808,1.383,1.383,1.383,1.383,0,1.4014,1.4,1.399,1.398,1.3964,1.3957,1.3941,1.3933,1.3922,1.3909,1.3905,1.3893,1.3883,1.3869,1.3862,1.3842,1.3839,1.3833,1.3831,1.3833,1.3833,1.3825,1.3826,1.3829,1.383,1.383,1.383,0,1.4,1.3993,1.3974,1.3961,1.3957,1.3945,1.3933,1.3922,1.3915,1.3898,1.3894,1.3882,1.3865,1.3856,1.3835,1.383,1.3807,1.3807,1.3812,1.3811,1.3799,1.38,1.3766,1.3761,1.3788,1.3788,1.3788,0,1.3988,1.3977,1.3962,1.3954,1.3947,1.3933,1.3924,1.3917,1.3907,1.3891,1.3881,1.3864,1.385,1.3823,1.3812,1.3795,1.3793,1.3782,1.379,1.3791,1.379,1.3791,1.3788,1.378,1.378,1.378,1.378,0,1.3967,1.3964,1.3951,1.3937,1.3926,1.3914,1.3903,1.3896,1.3886,1.3875,1.3858,1.3848,1.3826,1.3808,1.379,1.3781,1.3778,1.3778,1.3774,1.3774,1.3777,1.3774,1.3806,1.3778,1.3778,1.3778,1.3779,1.3779,1.3952,1.3942,1.393,1.3915,1.3906,1.3895,1.3884,1.3875,1.3862,1.3844,1.384,1.3822,1.3808,1.3783,1.3774,1.3758,1.376,1.3755,1.3753,1.3751,1.375,1.3781,1.3755,1.3755,1.3755,1.3755,1.3755,0,1.3929,1.3921,1.3908,1.3892,1.3881,1.3881,1.3867,1.3857,1.3841,1.3829,1.3815,1.3795,1.3778,1.3765,1.3747,1.3737,1.3735,1.3732,1.3732,1.3729,1.3751,1.3755,1.3734,1.3734,1.3734,1.3734,1.3734,1.3734,1.3916,1.3898,1.3894,1.3871,1.3863,1.3845,1.3837,1.3827,1.3816,1.3794,1.378,1.3773,1.376,1.3741,1.3724,1.3721,1.3713,1.3711,1.3707,1.3726,1.3728,1.373,1.3734,1.371,1.3709,1.3687,1.3686,1.3686]}]]